Simultaneous Nadir Overpasses (SNOs) Predictions

Prediction of SNOs between LANDSAT-8 and METOP-B Satellite Orbit:

Table of predicted SNOs for the next 14.0 days since TLE Epoch: 3/16/2024
Index Date (LANDSAT-8) Time (LANDSAT-8) Lat,Lon (LANDSAT-8) SZA (LANDSAT-8 ) Date (METOP-B) Time (METOP-B) Lat,Lon (METOP-B) SZA (METOP-B ) Distance(km) Time Diff (sec)
1 03/17/2024 14:49:53 81.31, 0.04 84.35 03/17/2024 14:49:02 81.30, 0.03 84.32 0.62 51
2 03/17/2024 15:39:20 -81.30, 167.54 95.69 03/17/2024 15:39:43 -81.30, 167.35 95.70 3.27 23
3 03/20/2024 10:24:06 81.31, 66.47 83.26 03/20/2024 10:23:25 81.31, 66.67 83.26 3.28 41
4 03/20/2024 11:13:32 -81.32,-125.62 96.72 03/20/2024 11:14:05 -81.32,-125.62 96.71 0.63 33
5 03/23/2024 05:58:19 81.30, 132.71 82.15 03/23/2024 05:57:49 81.30, 132.84 82.15 2.32 30
6 03/23/2024 06:47:45 -81.31, -59.35 97.83 03/23/2024 06:48:29 -81.31, -59.44 97.82 1.42 44
7 03/26/2024 01:32:30 81.30,-160.87 81.06 03/26/2024 01:32:12 81.30,-161.06 81.04 3.29 18
8 03/26/2024 02:21:56 -81.31, 7.10 98.91 03/26/2024 02:22:51 -81.32, 7.06 98.89 0.67 55
9 03/28/2024 21:06:41 81.30, -94.26 80.01 03/28/2024 21:06:34 81.31, -94.26 80.01 0.31 7



Historial Predications of SNOs between LANDSAT-8 and METOP-B
